Content
SEND FEEDBACK

Daily
Averages
Monthly
Summary
Iran

MASHHAD, IRAN


Home > Middle East > Iran
Elevation: 3214 feet     Latitude: 36 16N     Longitude: 059 38E

WEATHER
 
SELECT A DAY
Number of Records: 199,562;   Date Range: 2/9/98 - 7/9/14
 
SHARE

PRINT THIS DATA

[ ← Previous Day ]
WEATHER ALMANAC - APRIL 8, 2013
[ Next Day → ]
[ °C ]   °F
Weather ElementAverageHighLow
Temperature61.7 °F71.6 °F (2:00 pm)51.8 °F (3:20 am)
Dewpoint31.5 °F41 °F (5:20 am)26.6 °F (6:20 pm)
Humidity33.5 %67 % (5:20 am)12 % (4:30 pm)
Barometer29.96 in30.01 in (7:55 am)29.84 in (4:30 pm)
Wind Speed5.5 mph18.4 mph (1:00 pm)
Weather ElementAverage
Visibility6.3 mi
Wind DirectionSSE (143.6 °)

Weather ElementTotal
Precipitation---
Heating Degree Days3.3 (Base 65)
Growing Degree Days11.7 (Base 50)
Averaged from 74 records on April 8, 2013
WEATHER CONDITIONS BREAKOUT
WIND DIRECTION BREAKOUT
WEATHER BY HOUR - APRIL 8, 2013
[ °C ]   °F
Local TimeTemperatureDewpointHumidityBarometerVisibilityWind DirectionWind SpeedGust SpeedPrecipitationEventsConditions
12:20 AM55.4 °F33.8 °F44 %29.98 in6.2 miCalmMostly Cloudy
12:30 AM55.4 °F33.8 °F44 %29.98 in6.2 miCalmMostly Cloudy
1:00 AM55.4 °F33.8 °F44 %29.98 in6.2 miCalmMostly Cloudy
1:20 AM55.4 °F33.8 °F44 %29.98 in6.2 miCalmMostly Cloudy
1:30 AM55.4 °F33.8 °F44 %29.98 in6.2 miCalmMostly Cloudy
2:00 AM53.6 °F33.8 °F47 %29.95 in6.2 miCalmMostly Cloudy
2:20 AM53.6 °F35.6 °F51 %29.95 in6.2 miCalmMostly Cloudy
2:30 AM53.6 °F35.6 °F51 %29.95 in6.2 miCalmMostly Cloudy
3:00 AM53.6 °F33.8 °F47 %29.95 in6.2 miSouth (180°)4.6 mphMostly Cloudy
3:20 AM51.8 °F35.6 °F54 %29.95 in6.2 miWSW (240°)4.6 mphMostly Cloudy
3:30 AM51.8 °F35.6 °F54 %29.95 in6.2 miWSW (240°)4.6 mphMostly Cloudy
4:00 AM51.8 °F35.6 °F54 %29.95 in6.2 miSSW (200°)4.6 mphMostly Cloudy
4:30 AM53.0 °F34.0 °F37 %29.88 in7.0 miSSW (200°)4.5 mphScattered Clouds
4:30 AM53.6 °F33.8 °F47 %29.95 in6.2 miSSW (200°)4.6 mphMostly Cloudy
5:00 AM51.8 °F35.6 °F54 %29.95 in6.2 miCalmMostly Cloudy
5:20 AM51.8 °F41.0 °F67 %29.98 in6.2 miWNW (290°)4.6 mphMostly Cloudy
5:30 AM51.8 °F41.0 °F67 %29.98 in6.2 miWNW (290°)4.6 mphMostly Cloudy
6:00 AM53.6 °F33.8 °F47 %29.98 in6.2 miWNW (290°)6.9 mphPartly Cloudy
6:20 AM53.6 °F33.8 °F47 %29.98 in6.2 miWNW (300°)6.9 mphOvercast
6:30 AM53.6 °F33.8 °F47 %29.98 in6.2 miWNW (300°)6.9 mphOvercast
7:00 AM55.4 °F33.8 °F44 %29.98 in6.2 miWNW (300°)6.9 mphMostly Cloudy
7:20 AM55.4 °F32.0 °F41 %29.98 in6.2 miWNW (300°)6.9 mphMostly Cloudy
7:30 AM55.4 °F32.0 °F41 %29.98 in6.2 miWNW (300°)6.9 mphMostly Cloudy
7:55 AM59.0 °F33.8 °F39 %30.01 in6.2 miNNW (330°)6.9 mphMostly Cloudy
8:20 AM60.8 °F33.8 °F36 %30.01 in6.2 miNNW (340°)6.9 mphMostly Cloudy
8:30 AM60.8 °F33.8 °F36 %30.01 in6.2 miNNW (340°)6.9 mphMostly Cloudy
9:00 AM62.6 °F30.2 °F30 %30.01 in6.2 miNW (310°)9.2 mphMostly Cloudy
9:20 AM64.4 °F30.2 °F28 %30.01 in6.2 miNNW (330°)6.9 mphMostly Cloudy
9:30 AM64.4 °F30.2 °F28 %30.01 in6.2 miNNW (330°)6.9 mphMostly Cloudy
9:55 AM64.4 °F28.4 °F26 %30.01 in6.2 miSE (130°)4.6 mphMostly Cloudy
10:20 AM66.2 °F28.4 °F24 %30.01 in6.2 miNNE (30°)6.9 mphMostly Cloudy
10:30 AM65.0 °F29.0 °F15 %29.92 in7.0 miNNE (30°)6.7 mphScattered Clouds
10:30 AM66.2 °F28.4 °F24 %30.01 in6.2 miNNE (30°)6.9 mphMostly Cloudy
10:55 AM68.0 °F30.2 °F24 %30.01 in6.2 miNNE (30°)4.6 mphMostly Cloudy
11:20 AM68.0 °F30.2 °F24 %29.98 in6.2 miESE (110°)9.2 mphMostly Cloudy
11:30 AM68.0 °F30.2 °F24 %29.98 in6.2 miESE (110°)9.2 mphMostly Cloudy
12:00 PM69.8 °F32.0 °F25 %29.98 in6.2 miESE (110°)6.9 mphMostly Cloudy
12:20 PM68.0 °F32.0 °F26 %29.98 in6.2 miESE (120°)4.6 mphMostly Cloudy
12:30 PM68.0 °F32.0 °F26 %29.98 in6.2 miESE (120°)4.6 mphMostly Cloudy
1:00 PM69.8 °F30.2 °F23 %29.98 in6.2 miEast (90°)18.4 mphMostly Cloudy
1:20 PM69.8 °F28.4 °F21 %29.95 in6.2 miESE (110°)6.9 mphMostly Cloudy
1:30 PM69.8 °F28.4 °F21 %29.95 in6.2 miESE (110°)6.9 mphMostly Cloudy
2:00 PM71.6 °F30.2 °F22 %29.95 inNorthMostly Cloudy
2:20 PM71.6 °F30.2 °F22 %29.95 in6.2 miSE (130°)9.2 mphMostly Cloudy
2:30 PM71.6 °F30.2 °F22 %29.95 in6.2 miSE (130°)9.2 mphMostly Cloudy
3:00 PM71.6 °F28.4 °F20 %29.95 in6.2 miNNE (30°)4.6 mphMostly Cloudy
3:20 PM69.8 °F30.2 °F23 %29.95 in6.2 miESE (120°)4.6 mphMostly Cloudy
3:30 PM69.8 °F30.2 °F23 %29.95 in6.2 miESE (120°)4.6 mphMostly Cloudy
4:00 PM71.6 °F32.0 °F23 %29.92 in6.2 miSSE (150°)6.9 mphMostly Cloudy
4:20 PM71.6 °F30.2 °F22 %29.92 in6.2 miNE (40°)6.9 mphMostly Cloudy
4:30 PM71.0 °F30.0 °F12 %29.84 in7.0 miNE (40°)6.7 mphScattered Clouds
4:30 PM71.6 °F30.2 °F22 %29.92 in6.2 miNE (40°)6.9 mphMostly Cloudy
5:00 PM71.6 °F28.4 °F20 %29.92 in6.2 miESE (110°)6.9 mphMostly Cloudy
5:20 PM68.0 °F28.4 °F23 %29.95 in6.2 miSSE (160°)6.9 mphMostly Cloudy
5:30 PM68.0 °F28.4 °F23 %29.95 in6.2 miSSE (160°)6.9 mphMostly Cloudy
5:55 PM68.0 °F28.4 °F23 %29.95 in6.2 miESE (120°)9.2 mphMostly Cloudy
6:20 PM68.0 °F26.6 °F21 %29.95 in6.2 miEast (100°)11.5 mphMostly Cloudy
6:30 PM68.0 °F26.6 °F21 %29.95 in6.2 miEast (100°)11.5 mphMostly Cloudy
7:00 PM64.4 °F28.4 °F26 %29.95 in6.2 miSSE (150°)6.9 mphScattered Clouds
7:20 PM62.6 °F30.2 °F30 %29.95 in6.2 miESE (120°)6.9 mphScattered Clouds
7:30 PM62.6 °F30.2 °F30 %29.95 in6.2 miESE (120°)6.9 mphScattered Clouds
7:55 PM60.8 °F28.4 °F29 %29.95 in6.2 miSSE (150°)4.6 mphScattered Clouds
8:20 PM60.8 °F30.2 °F31 %29.98 inSSE (150°)4.6 mphClear
8:30 PM60.8 °F30.2 °F31 %29.98 inSSE (150°)4.6 mphClear
8:55 PM60.8 °F30.2 °F31 %29.98 inSW (230°)4.6 mphClear
9:20 PM59.0 °F30.2 °F34 %29.98 inCalmClear
9:30 PM59.0 °F30.2 °F34 %29.98 inCalmClear
9:55 PM59.0 °F30.2 °F34 %29.98 inSouth (180°)4.6 mphClear
10:20 PM59.0 °F30.2 °F34 %29.98 inSouth (180°)4.6 mphClear
10:30 PM59.0 °F30.0 °F22 %29.88 in7.0 miSouth (180°)4.5 mphClear
10:30 PM59.0 °F30.2 °F34 %29.98 inSouth (180°)4.6 mphClear
10:55 PM57.2 °F32.0 °F38 %29.98 inSouth (170°)4.6 mphClear
11:20 PM55.4 °F32.0 °F41 %29.98 inSouth (190°)4.6 mphClear
11:30 PM55.4 °F32.0 °F41 %29.98 inSouth (190°)4.6 mphClear
Hourly data recorded from OIMM, located miles away from Mashhad, Iran







STORIES FROM OUR PARTNERS